This demonstration page uses our WeatherBlox Daily Observations layout. Learn more.

Left ArrowRight Arrow

Hourly Observations for May 15, 2015

Temp ( °F °C ) Dew Point ( °F °C ) Humidity (%) Winds ( mph kmh ) Pressure ( in mb ) Visibility ( mi km ) Precip ( " mm )
12:53 am 00:53 Clear 61 16.1 57 13.9 87 87 S 8 13 29.90 1013 10 16 0.00 0.00
1:53 am 01:53 Clear 61 16.1 57 13.9 87 87 S 8 13 29.89 1012 10 16 0.00 0.00
2:53 am 02:53 Clear 60 15.6 57 13.9 90 90 SSE 6 9 29.86 1011 10 16 0.00 0.00
3:53 am 03:53 Clear 60 15.6 57 13.9 90 90 SSE 7 11 29.84 1011 10 16 0.00 0.00
4:53 am 04:53 Clear 60 15.6 57 13.9 90 90 SE 6 9 29.85 1011 10 16 0.00 0.00
5:53 am 05:53 Clear 60 15.6 58 14.4 93 93 SSE 6 9 29.85 1011 10 16 0.00 0.00
6:53 am 06:53 Mostly Cloudy 61 16.1 59 15 93 93 S 12 19 29.88 1012 10 16 0.00 0.00
7:53 am 07:53 Cloudy with Light Rain 61 16.1 57 13.9 87 87 SSW 6 9 29.89 1012 6 10 0.02 0.51
8:53 am 08:53 Mostly Cloudy 62 16.7 55 12.8 78 78 ENE 5 7 29.85 1011 10 16 0.02 0.51
9:53 am 09:53 Sunny 66 18.9 58 14.4 75 75 S 8 13 29.85 1011 10 16 0.00 0.00
10:53 am 10:53 Sunny 71 21.7 59 15 66 66 SSE 9 15 29.84 1010 10 16 0.00 0.00
11:53 am 11:53 Sunny 71 21.7 62 16.7 73 73 ESE 7 11 29.85 1011 10 16 0.00 0.00
12:53 pm 12:53 Mostly Cloudy 72 22.2 62 16.7 71 71 SE 14 22 29.86 1011 10 16 0.00 0.00
1:26 pm 13:26 Mostly Cloudy 72 22 63 17 73 73 ESE 14 22 29.80 1009 10 16 0.00 0.00
1:39 pm 13:39 Mostly Cloudy 73 23 63 17 69 69 ESE 18 30 29.80 1009 10 16 0.00 0.00
1:53 pm 13:53 Mostly Cloudy 72 22.2 62 16.7 71 71 SE 15 24 29.83 1010 10 16 0.00 0.00
2:53 pm 14:53 Mostly Cloudy 73 22.8 63 17.2 71 71 SE 14 22 29.79 1009 10 16 0.00 0.00
3:53 pm 15:53 Mostly Sunny 74 23.3 61 16.1 64 64 ESE 14 22 29.76 1008 10 16 0.00 0.00
4:53 pm 16:53 Mostly Sunny 74 23.3 63 17.2 69 69 SE 15 24 29.74 1007 10 16 0.00 0.00
5:53 pm 17:53 Cloudy 73 22.8 60 15.6 64 64 SE 22 35 29.74 1007 10 16 0.00 0.00
6:53 pm 18:53 Partly Cloudy 72 22.2 61 16.1 68 68 SE 16 26 29.73 1007 10 16 0.00 0.00
7:53 pm 19:53 Partly Cloudy 69 20.6 63 17.2 81 81 ESE 17 28 29.74 1007 10 16 0.00 0.00
8:53 pm 20:53 Clear 66 18.9 62 16.7 87 87 ESE 17 28 29.74 1007 10 16 0.00 0.00
9:53 pm 21:53 Partly Cloudy 64 17.8 61 16.1 90 90 ESE 16 26 29.76 1008 10 16 0.00 0.00
10:06 pm 22:06 Mostly Cloudy 64 17.8 61 16.1 90 90 ESE 15 24 29.74 1007 10 16 0.00 0.00
10:18 pm 22:18 Mostly Cloudy 64 18 61 16 88 88 ESE 16 26 29.71 1006 10 16 0.00 0.00
10:53 pm 22:53 Mostly Cloudy 64 17.8 62 16.7 93 93 ESE 16 26 29.75 1008 10 16 0.00 0.00
11:22 pm 23:22 Partly Cloudy 63 17 63 17 100 100 SE 14 22 29.71 1006 10 16 0.00 0.00
11:53 pm 23:53 Mostly Cloudy with Light Rain 64 17.8 62 16.7 93 93 SE 13 20 29.73 1007 10 16 0.00 0.03

Powered by AerisWeather